Flag for Finland Weather past 2 weeks in Tampere, Finland

Now
57 °F

Broken clouds.


Feels Like: 55 °F
Forecast: 57 / 65 °F
Wind: 9 mph from Southwest

Location: Tampere / Pirkkala

Current Time: Jul 8, 2015 at 7:24:17 AM

Latest Report: Jul 8, 2015 at 6:20 AM


Visibility: N/A

Pressure: 29.47 "Hg

Humidity: 94%

Dew point: 55 °F

Location of TampereLocation

Historic Weather in Tampere — Graph

°F

Tampere temperature yesterday

Maximum temperature yesterday: 61 °F (at 5:50 PM)
Minimum temperature yesterday: 50 °F (at 1:50 AM)
Average temperature yesterday: 56 °F

Past Weeks' High & Low Weather Summary

 TemperatureHumidityPressure
High82 °F (Jul 3, 2:50 PM)100% (Jun 23, 5:50 AM)30.33 "Hg (Jun 23, 5:50 AM)
Low45 °F (Jun 23, 5:20 AM)31% (Jul 1, 3:20 PM)29.39 "Hg (Jul 7, 3:20 PM)
Average61 °F71%29.92 "Hg
* Reported Jun 23 5:20 AM — Jul 8 5:50 AM, Tampere, Weather by CustomWeather, © 2015

Note: Actual official high and low records may vary slightly from our data, if they occured in-between our weather recording intervals... More about our weather records

Advertising

Tampere weather history for previous 24 hours

 ConditionsComfort  
Time TempWeatherWind HumidityBarometerVisibility
5:50 AM
Wed, Jul 8
57 °FBroken clouds.7 mph100%29.45 "HgN/A
5:20 AM57 °FBroken clouds.6 mph94%29.45 "HgN/A
4:50 AM57 °FPartly cloudy.7 mph94%29.45 "HgN/A
4:20 AM57 °FSprinkles. Passing clouds.8 mph100%29.45 "HgN/A
3:50 AM57 °FFog.8 mph100%29.45 "Hg2 mi
3:20 AM57 °FFog.7 mph100%29.45 "Hg3 mi
2:50 AM57 °FPassing clouds.8 mph100%29.45 "HgN/A
2:20 AM57 °FMostly cloudy.8 mph100%29.45 "HgN/A
1:50 AM57 °FPassing clouds.7 mph100%29.45 "Hg5 mi
1:20 AM57 °FSprinkles. Mostly cloudy.10 mph94%29.45 "Hg3 mi
12:20 AM57 °FRain showers. Mostly cloudy.10 mph94%29.45 "HgN/A
11:50 PM
Tue, Jul 7
57 °FBroken clouds.8 mph100%29.45 "HgN/A
11:20 PM57 °FBroken clouds.13 mph94%29.42 "HgN/A
10:50 PM57 °FSprinkles. Partly sunny.7 mph100%29.42 "HgN/A
10:20 PM57 °FSprinkles. Cloudy.7 mph100%29.42 "HgN/A
9:50 PM57 °FPartly sunny.7 mph100%29.42 "HgN/A
9:20 PM57 °FCloudy.9 mph94%29.42 "HgN/A
8:50 PM59 °FScattered showers. Broken clouds.7 mph88%29.42 "HgN/A
8:20 PM59 °FScattered showers. Partly sunny.8 mph88%29.42 "HgN/A
7:50 PM59 °FBroken clouds.10 mph88%29.42 "HgN/A
7:20 PM59 °FPartly sunny.12 mph88%29.42 "HgN/A
6:50 PM59 °FScattered clouds.15 mph88%29.42 "HgN/A
6:20 PM61 °FBroken clouds.14 mph83%29.42 "HgN/A
5:50 PM61 °FBroken clouds.9 mph83%29.42 "HgN/A
5:20 PM59 °FBroken clouds.8 mph88%29.42 "HgN/A
4:50 PM59 °FPartly sunny.10 mph82%29.42 "HgN/A
4:20 PM57 °FSprinkles. Partly sunny.12 mph94%29.42 "HgN/A
3:50 PM57 °FLots of rain. Partly sunny.6 mph88%29.42 "Hg2 mi
3:20 PM59 °FBroken clouds.7 mph88%29.39 "HgN/A
2:50 PM57 °FSprinkles. Broken clouds.5 mph94%29.42 "HgN/A
2:20 PM55 °FRain showers. Broken clouds.6 mph94%29.42 "HgN/A
1:50 PM57 °FBroken clouds.5 mph88%29.42 "HgN/A
1:20 PM59 °FBroken clouds.5 mph82%29.42 "HgN/A
12:50 PM57 °FRain. Broken clouds.7 mph88%29.42 "HgN/A
12:20 PM59 °FScattered showers. Broken clouds.9 mph82%29.42 "HgN/A
11:50 AM57 °FPartly sunny.7 mph88%29.42 "HgN/A
11:20 AM57 °FSprinkles. Broken clouds.8 mph88%29.42 "HgN/A
10:50 AM57 °FBroken clouds.6 mph94%29.42 "HgN/A
10:20 AM59 °FSprinkles. Broken clouds.6 mph88%29.42 "HgN/A
9:50 AM57 °FBroken clouds.5 mph94%29.45 "HgN/A
9:20 AM55 °FSprinkles. Broken clouds.5 mph100%29.45 "HgN/A
8:50 AM55 °FMostly cloudy.6 mph94%29.45 "HgN/A
8:20 AM54 °FCloudy.8 mph100%29.47 "HgN/A
7:50 AM54 °FLight rain. Mostly cloudy.7 mph94%29.47 "Hg4 mi
7:20 AM54 °FLight rain. Mostly cloudy.8 mph94%29.47 "Hg4 mi
Weather by CustomWeather, © 2015

See weather overviewHow to use our weather pages